Weather History for KDKB - November, 2013

Change the Weather History Date:

Friday, November 22, 2013

  Actual Average (KARR) Record (KARR)
Temperature  
Mean Temperature 32 °F 35 °F  
Max Temperature 39 °F 44 °F 67 °F (2010)
Min Temperature 23 °F 26 °F 9 °F (2000)
Degree Days  
Heating Degree Days 34 30  
Month to date heating degree days 547  
Since 1 July heating degree days 1154  
Cooling Degree Days 0 0  
Month to date cooling degree days 0  
Year to date cooling degree days 655  
Moisture  
Dew Point 28 °F    
Average Humidity 84    
Maximum Humidity 96    
Minimum Humidity 71    
Precipitation  
Precipitation 0.01 in 0.09 in 1.61 in (2010)
Month to date precipitation 2.40  
Year to date precipitation 34.16  
Sea Level Pressure  
Sea Level Pressure 30.39 in    
Wind  
Wind Speed 11 mph (NW)    
Max Wind Speed 20 mph    
Max Gust Speed 26 mph    
Visibility 9 miles    
Events Rain    
T = Trace of Precipitation, MM = Missing Value Source: NWS Daily Summary

Daily Weather History Graph

Daily Weather History Graph

Search for Another Location

Airport or City:

Trip Planner

Search our weather history database for the weather conditions in past years. The results will help you decide how hot, cold, wet, or windy it might be!

Date:

Astronomy

Nov. 22, 2013 Rise Set
Actual Time 6:53 AM CST 4:28 PM CST
Civil Twilight 6:22 AM CST 4:58 PM CST
Nautical Twilight 5:48 AM CST 5:33 PM CST
Astronomical Twilight 5:15 AM CST 6:06 PM CST
Moon 9:01 PM CST (11/22) 10:35 AM CST (11/22)
Length of Visible Light 10h 36m
Length of Day
9h 35m
Waning Gibbous, 78% of the Moon is Illuminated
Nov 22
Waning Gibbous
Nov 25
Last Quarter
Dec 2
New
Dec 9
First Quarter
Dec 17
Full

Hourly Weather History & Observations

Time (CST) Temp. Windchill Dew Point Humidity Pressure Visibility Wind Dir Wind Speed Gust Speed Precip Events Conditions
12:15 AM 39.2 °F 33.6 °F 37.0 °F 92% 30.22 in 4.0 mi NNW 8.1 mph - N/A   Overcast
12:35 AM 39.2 °F 33.0 °F 37.0 °F 92% 30.22 in 4.0 mi NNW 9.2 mph - N/A   Overcast
12:55 AM 39.2 °F 32.5 °F 37.0 °F 92% 30.22 in 4.0 mi NNW 10.4 mph - N/A   Overcast
1:15 AM 39.2 °F 32.5 °F 37.4 °F 93% 30.24 in 3.0 mi North 10.4 mph - N/A   Overcast
1:35 AM 38.7 °F 31.4 °F 37.6 °F 96% 30.23 in 2.5 mi NNW 11.5 mph - N/A Rain Light Rain
1:55 AM 38.3 °F 30.5 °F 37.0 °F 95% 30.24 in 2.5 mi North 12.7 mph - N/A   Overcast
2:15 AM 38.3 °F 30.9 °F 36.0 °F 91% 30.24 in 4.0 mi North 11.5 mph 17.3 mph N/A   Overcast
2:35 AM 38.3 °F 31.4 °F 36.0 °F 91% 30.24 in 4.0 mi NNW 10.4 mph - N/A   Drizzle
2:55 AM 37.9 °F 30.9 °F 36.0 °F 93% 30.25 in 3.0 mi NNW 10.4 mph - N/A Rain Rain
3:15 AM 37.6 °F 29.1 °F 35.8 °F 93% 30.26 in 3.0 mi NNW 13.8 mph 19.6 mph N/A   Light Drizzle
3:35 AM 37.2 °F 29.6 °F 35.1 °F 92% 30.27 in 4.0 mi NNW 11.5 mph 17.3 mph N/A Rain Rain
4:15 AM 36.5 °F 27.4 °F 34.7 °F 93% 30.27 in 4.0 mi NNW 15.0 mph - N/A Rain Rain
4:35 AM 36.5 °F 28.7 °F 34.7 °F 93% 30.27 in 4.0 mi NNW 11.5 mph 17.3 mph 0.01 in   Drizzle
4:55 AM 36.3 °F 27.5 °F 34.7 °F 94% 30.27 in 5.0 mi North 13.8 mph 18.4 mph 0.01 in   Light Drizzle
5:15 AM 36.0 °F 28.0 °F 33.8 °F 92% 30.28 in 7.0 mi North 11.5 mph 19.6 mph N/A   Light Drizzle
5:35 AM 35.2 °F 25.8 °F 33.1 °F 92% 30.28 in 10.0 mi North 15.0 mph 21.9 mph N/A   Light Drizzle
5:55 AM 34.7 °F 24.7 °F 32.2 °F 91% 30.31 in 10.0 mi NNW 16.1 mph 19.6 mph N/A   Overcast
6:15 AM 34.0 °F 22.7 °F 31.8 °F 92% 30.32 in 10.0 mi North 19.6 mph 25.3 mph N/A   Overcast
6:35 AM 33.8 °F 23.9 °F 31.6 °F 92% 30.33 in 10.0 mi North 15.0 mph - N/A   Overcast
6:55 AM 33.1 °F 22.2 °F 30.7 °F 91% 30.35 in 10.0 mi North 17.3 mph 23.0 mph N/A   Overcast
7:15 AM 32.9 °F 22.8 °F 30.7 °F 92% 30.36 in 10.0 mi NNW 15.0 mph 20.7 mph N/A   Overcast
7:35 AM 32.5 °F 22.7 °F 30.4 °F 92% 30.37 in 10.0 mi NNW 13.8 mph 21.9 mph N/A   Overcast
7:55 AM 32.2 °F 21.4 °F 30.0 °F 92% 30.38 in 5.0 mi North 16.1 mph - N/A   Overcast
8:15 AM 32.4 °F 22.1 °F 30.2 °F 92% 30.39 in 10.0 mi NNW 15.0 mph 18.4 mph N/A   Overcast
8:35 AM 32.5 °F 23.7 °F 30.2 °F 91% 30.40 in 10.0 mi NNW 11.5 mph 19.6 mph N/A   Overcast
8:55 AM 32.4 °F 22.5 °F 29.8 °F 90% 30.40 in 10.0 mi North 13.8 mph 20.7 mph N/A   Overcast
9:15 AM 32.0 °F 20.8 °F 28.8 °F 88% 30.42 in 10.0 mi North 17.3 mph 26.5 mph N/A   Overcast
9:35 AM 32.0 °F 20.1 °F 28.6 °F 87% 30.42 in 10.0 mi North 19.6 mph 25.3 mph N/A   Overcast
9:55 AM 32.0 °F 20.8 °F 28.6 °F 87% 30.44 in 10.0 mi North 17.3 mph 20.7 mph N/A   Overcast
10:15 AM 32.0 °F 21.6 °F 29.1 °F 89% 30.44 in 10.0 mi NNW 15.0 mph 20.7 mph N/A   Overcast
10:35 AM 32.5 °F 22.7 °F 29.3 °F 88% 30.44 in 10.0 mi North 13.8 mph 20.7 mph N/A   Overcast
10:55 AM 32.2 °F 21.1 °F 28.8 °F 87% 30.43 in 10.0 mi North 17.3 mph - N/A   Overcast
11:15 AM 32.5 °F 21.9 °F 28.6 °F 85% 30.41 in 10.0 mi North 16.1 mph - N/A   Overcast
11:35 AM 33.4 °F 24.8 °F 28.4 °F 82% 30.41 in 10.0 mi North 11.5 mph - N/A   Overcast
11:55 AM 33.8 °F 25.3 °F 28.8 °F 82% 30.41 in 10.0 mi North 11.5 mph - N/A   Overcast
12:15 PM 34.0 °F 26.0 °F 27.5 °F 77% 30.40 in 10.0 mi North 10.4 mph - N/A   Mostly Cloudy
12:35 PM 34.0 °F 26.6 °F 28.0 °F 79% 30.41 in 10.0 mi North 9.2 mph - N/A   Overcast
12:55 PM 34.3 °F 24.6 °F 28.0 °F 78% 30.43 in 10.0 mi North 15.0 mph - N/A   Overcast
1:15 PM 33.8 °F 23.9 °F 27.5 °F 78% 30.43 in 10.0 mi North 15.0 mph 19.6 mph N/A   Overcast
1:35 PM 34.2 °F 24.0 °F 27.3 °F 76% 30.44 in 10.0 mi North 16.1 mph 20.7 mph N/A   Overcast
1:55 PM 34.7 °F 25.1 °F 27.1 °F 74% 30.44 in 10.0 mi North 15.0 mph - N/A   Overcast
2:15 PM 34.7 °F 26.4 °F 26.4 °F 72% 30.44 in 10.0 mi NNW 11.5 mph 16.1 mph N/A   Overcast
2:35 PM 33.8 °F 25.3 °F 25.9 °F 73% 30.46 in 10.0 mi NNW 11.5 mph - N/A   Mostly Cloudy
2:55 PM 33.4 °F 25.4 °F 25.2 °F 72% 30.46 in 10.0 mi NNW 10.4 mph - N/A   Scattered Clouds
3:15 PM 33.8 °F 26.4 °F 25.3 °F 71% 30.47 in 10.0 mi NNW 9.2 mph - N/A   Clear
3:35 PM 32.9 °F 24.1 °F 24.4 °F 71% 30.47 in 10.0 mi NNW 11.5 mph - N/A   Clear
3:55 PM 32.4 °F 26.0 °F 24.3 °F 72% 30.47 in 10.0 mi NW 6.9 mph - N/A   Clear
4:15 PM 32.0 °F 26.4 °F 24.6 °F 74% 30.47 in 10.0 mi NNW 5.8 mph - N/A   Clear
4:35 PM 31.1 °F 25.4 °F 24.6 °F 77% 30.47 in 10.0 mi NW 5.8 mph - N/A   Clear
4:55 PM 30.6 °F 25.8 °F 24.8 °F 79% 30.47 in 10.0 mi WNW 4.6 mph - N/A   Clear
5:15 PM 29.3 °F 23.2 °F 24.6 °F 83% 30.46 in 10.0 mi NW 5.8 mph - N/A   Clear
5:35 PM 29.3 °F 24.3 °F 24.8 °F 83% 30.46 in 10.0 mi West 4.6 mph - N/A   Clear
5:55 PM 28.9 °F 23.9 °F 23.2 °F 79% 30.46 in 10.0 mi West 4.6 mph - N/A   Clear
6:15 PM 28.4 °F 23.3 °F 23.0 °F 80% 30.46 in 10.0 mi West 4.6 mph - N/A   Clear
6:35 PM 28.8 °F 22.6 °F 22.8 °F 78% 30.45 in 10.0 mi West 5.8 mph - N/A   Clear
6:55 PM 27.3 °F 20.9 °F 22.8 °F 83% 30.45 in 10.0 mi West 5.8 mph - N/A   Clear
7:15 PM 27.7 °F 21.3 °F 23.4 °F 84% 30.46 in 10.0 mi West 5.8 mph - N/A   Clear
7:35 PM 27.7 °F 20.4 °F 23.0 °F 83% 30.45 in 10.0 mi West 6.9 mph - N/A   Clear
7:55 PM 28.2 °F 20.2 °F 22.8 °F 80% 30.45 in 10.0 mi West 8.1 mph - N/A   Clear
8:15 PM 28.2 °F 19.5 °F 22.5 °F 79% 30.45 in 10.0 mi WNW 9.2 mph - N/A   Clear
8:35 PM 27.5 °F 18.6 °F 21.9 °F 80% 30.45 in 10.0 mi WNW 9.2 mph - N/A   Clear
8:55 PM 27.5 °F 18.6 °F 21.6 °F 78% 30.46 in 10.0 mi WNW 9.2 mph - N/A   Clear
9:15 PM 27.1 °F 18.2 °F 21.0 °F 78% 30.45 in 10.0 mi West 9.2 mph - N/A   Clear
9:35 PM 26.6 °F 16.8 °F 21.6 °F 81% 30.46 in 10.0 mi West 10.4 mph - N/A   Clear
9:55 PM 26.4 °F 16.6 °F 21.7 °F 82% 30.45 in 10.0 mi West 10.4 mph - N/A   Clear
10:15 PM 25.7 °F 15.7 °F 20.8 °F 82% 30.45 in 10.0 mi West 10.4 mph - N/A   Clear
10:35 PM 25.7 °F 15.7 °F 19.8 °F 78% 30.45 in 10.0 mi West 10.4 mph - N/A   Clear
10:55 PM 25.3 °F 16.0 °F 19.2 °F 78% 30.45 in 10.0 mi West 9.2 mph - N/A   Clear
11:15 PM 25.0 °F 15.5 °F 19.0 °F 78% 30.45 in 10.0 mi West 9.2 mph - N/A   Clear
11:35 PM 24.3 °F 14.6 °F 19.6 °F 82% 30.45 in 10.0 mi West 9.2 mph - N/A   Clear
11:55 PM 23.7 °F 14.0 °F 19.0 °F 82% 30.44 in 10.0 mi West 9.2 mph - N/A   Clear